This is the latest recevied weather packets stored in our database for station/object KB0BS-13. If no packets are shown the sender has not sent any weather packets the latest 10 day(s).
| Time | Temp. | Humidity | Pressure | Rain* | Wind** | Luminosity | Snow |
|---|---|---|---|---|---|---|---|
| 1777590878 | 3.89° C | 80% | 1015.8 hPa | 0 mm | - | 26 W/m² | - |
| 1777590576 | 3.89° C | 79% | 1015.9 hPa | 0 mm | - | 28 W/m² | - |
| 1777590271 | 3.89° C | 78% | 1015.8 hPa | 0 mm | - | 29 W/m² | - |
| 1777589969 | 3.89° C | 78% | 1015.8 hPa | 0 mm | - | 26 W/m² | - |
| 1777589665 | 3.89° C | 77% | 1015.7 hPa | 0 mm | - | 41 W/m² | - |
| 1777589363 | 3.89° C | 79% | 1015.6 hPa | 0 mm | - | 71 W/m² | - |
| 1777589060 | 3.89° C | 79% | 1015.7 hPa | 0 mm | - | 52 W/m² | - |
| 1777588756 | 4.44° C | 78% | 1015.7 hPa | 0 mm | - | 44 W/m² | - |
| 1777588452 | 4.44° C | 79% | 1015.6 hPa | 0 mm | - | 50 W/m² | - |
| 1777588147 | 4.44° C | 79% | 1015.6 hPa | 0 mm | - | 53 W/m² | - |
| 1777587844 | 4.44° C | 76% | 1015.4 hPa | 0 mm | - | 54 W/m² | - |
| 1777587543 | 5° C | 77% | 1015.4 hPa | 0 mm | - | 74 W/m² | - |
| 1777587239 | 5° C | 78% | 1015.3 hPa | 0 mm | - | 92 W/m² | - |
| 1777586935 | 5° C | 75% | 1015.5 hPa | 0 mm | - | 125 W/m² | - |
| 1777586631 | 5° C | 75% | 1015.4 hPa | 0 mm | - | 93 W/m² | - |
| 1777586326 | 5.56° C | 74% | 1015 hPa | 0 mm | - | 129 W/m² | - |
| 1777586025 | 5° C | 73% | 1015.2 hPa | 0 mm | - | 158 W/m² | - |
| 1777585725 | 5° C | 73% | 1015.3 hPa | 0 mm | - | 158 W/m² | - |
| 1777585425 | 5° C | 73% | 1015.3 hPa | 0 mm | - | 205 W/m² | - |
| 1777585120 | 5° C | 74% | 1015.4 hPa | 0 mm | - | 178 W/m² | - |
| 1777584816 | 5° C | 73% | 1015.3 hPa | 0 mm | - | 99 W/m² | - |
| 1777584514 | 5° C | 74% | 1015.4 hPa | 0 mm | - | 95 W/m² | - |
| 1777584210 | 5° C | 76% | 1015.1 hPa | 0 mm | - | 99 W/m² | - |
| 1777583910 | 5° C | 76% | 1015.2 hPa | 0 mm | - | 91 W/m² | - |
| 1777583606 | 5° C | 75% | 1015.2 hPa | 0 mm | - | 132 W/m² | - |
* Rain latest hour (hover to see other rain measurements)
** Current wind speed in m/s (hover to see current wind gust speed)